GW0401 Weather Reports


time (UTC)temp
C
wind
direction
speed
KPH
gust
KPH
rain 1hr
cm
rain 24hr
cm
rain mn
cm
humidity
%
barometer
mb
20260502195919 14 346 8.0 11.3 0.00 0.00 0.00 82 1014.0
20260502195417 14 354 9.7 14.5 0.00 0.00 0.00 81 1014.1
20260502194917 15 356 9.7 14.5 0.00 0.00 0.00 83 1014.1
20260502194417 14 359 9.7 11.3 0.00 0.00 0.00 82 1013.9
20260502193919 14 346 9.7 14.5 0.00 0.00 0.00 81 1014.0
20260502192915 15 352 9.7 14.5 0.00 0.00 0.00 80 1014.0
20260502192415 15 347 9.7 14.5 0.00 0.00 0.00 80 1013.9
20260502191918 15 333 9.7 11.3 0.00 0.00 0.00 80 1013.9
20260502191418 15 340 8.0 11.3 0.00 0.00 0.00 79 1013.9
20260502190416 16 340 9.7 16.1 0.00 0.00 0.00 79 1013.8
20260502185911 16 328 11.3 17.7 0.00 0.00 0.00 77 1013.8
20260502185415 16 323 14.5 19.3 0.00 0.00 0.00 76 1013.8
20260502184412 17 318 14.5 17.7 0.00 0.00 0.00 75 1013.7
20260502183915 17 312 9.7 11.3 0.00 0.00 0.00 74 1013.8
20260502183412 18 312 9.7 14.5 0.00 0.00 0.00 74 1013.8
20260502182414 18 315 14.5 17.7 0.00 0.00 0.00 72 1013.7
20260502181919 18 326 16.1 17.7 0.00 0.00 0.00 71 1013.7
20260502180411 20 309 9.7 9.7 0.00 0.00 0.00 68 1013.8
20260502170411 22 257 6.4 17.7 0.00 0.00 0.00 64 1014.1
20260502163910 22 239 12.9 17.7 0.00 0.00 0.00 61 1014.4
20260502163410 22 247 12.9 17.7 0.00 0.00 0.00 61 1014.5
20260502162908 22 240 9.7 16.1 0.00 0.00 0.00 62 1014.5
20260502162412 22 233 9.7 14.5 0.00 0.00 0.00 60 1014.5
20260502161909 22 237 9.7 17.7 0.00 0.00 0.00 62 1014.7
20260502161412 22 230 9.7 17.7 0.00 0.00 0.00 61 1014.6
20260502160908 22 254 9.7 16.1 0.00 0.00 0.00 62 1014.7
20260502160410 22 242 8.0 17.7 0.00 0.00 0.00 62 1014.7
20260502151903 22 284 8.0 19.3 0.00 0.00 0.00 61 1015.2
20260502151404 22 294 11.3 19.3 0.00 0.00 0.00 62 1015.2
20260502150855 22 227 14.5 19.3 0.00 0.00 0.00 60 1015.3
20260502150355 22 274 11.3 22.5 0.00 0.00 0.00 60 1015.3
20260502130337 23 249 14.5 35.4 0.00 0.00 0.00 52 1015.8
20260502123340 23 251 20.9 32.2 0.00 0.00 0.00 50 1016.0
20260502122838 23 215 19.3 33.8 0.00 0.00 0.00 49 1016.1
20260502122339 23 218 14.5 33.8 0.00 0.00 0.00 54 1016.1
20260502121840 22 185 19.3 30.6 0.00 0.00 0.00 49 1016.2
20260502121337 23 222 19.3 30.6 0.00 0.00 0.00 51 1016.2
20260502120837 23 232 19.3 27.4 0.00 0.00 0.00 53 1016.2
20260502120335 23 233 22.5 29.0 0.00 0.00 0.00 50 1016.3
20260502115837 23 237 20.9 29.0 0.00 0.00 0.00 52 1016.3
20260502114835 23 218 19.3 27.4 0.00 0.00 0.00 49 1016.4
20260502114335 23 205 20.9 27.4 0.00 0.00 0.00 51 1016.5
20260502113835 23 227 16.1 29.0 0.00 0.00 0.00 50 1016.5
20260502113334 23 199 19.3 29.0 0.00 0.00 0.00 47 1016.6
20260502112836 23 237 12.9 25.7 0.00 0.00 0.00 48 1016.7
20260502112328 23 202 14.5 22.5 0.00 0.00 0.00 52 1016.7
20260502111828 22 202 11.3 22.5 0.00 0.00 0.00 48 1016.6
20260502110330 22 192 14.5 27.4 0.00 0.00 0.00 51 1016.8
20260502105826 22 215 20.9 27.4 0.00 0.00 0.00 47 1016.8
20260502105329 22 211 17.7 32.2 0.00 0.00 0.00 49 1016.9
20260502104828 22 202 24.1 32.2 0.00 0.00 0.00 47 1016.9
20260502103829 22 201 20.9 29.0 0.00 0.00 0.00 47 1016.9
20260502103325 22 188 19.3 29.0 0.00 0.00 0.00 45 1016.9
20260502102827 22 187 14.5 20.9 0.00 0.00 0.00 46 1016.9
20260502102328 22 167 11.3 17.7 0.00 0.00 0.00 45 1017.0
20260502101825 22 156 12.9 17.7 0.00 0.00 0.00 49 1017.0
20260502101325 21 153 9.7 22.5 0.00 0.00 0.00 47 1017.0
20260502100824 21 208 14.5 22.5 0.00 0.00 0.00 44 1017.1
20260502100324 21 195 9.7 17.7 0.00 0.00 0.00 49 1017.2
20260502091322 20 208 14.5 20.9 0.00 0.00 0.00 47 1017.6
20260502090822 21 234 16.1 20.9 0.00 0.00 0.00 44 1017.4
20260502090322 21 209 12.9 17.7 0.00 0.00 0.00 50 1017.4
20260502071316 17 182 14.5 19.3 0.00 0.00 0.00 58 1017.9
20260502065817 16 177 14.5 17.7 0.00 0.00 0.00 57 1017.9
20260502065314 16 178 12.9 19.3 0.00 0.00 0.00 59 1018.0
20260502064816 16 172 14.5 20.9 0.00 0.00 0.00 57 1017.9
20260502063817 15 163 16.1 22.5 0.00 0.00 0.00 61 1018.0
20260502063316 15 172 14.5 20.9 0.00 0.00 0.00 61 1017.9
20260502062816 15 191 14.5 20.9 0.00 0.00 0.00 65 1018.1
20260502062314 15 189 14.5 20.9 0.00 0.00 0.00 65 1018.1
20260502061814 14 177 14.5 17.7 0.00 0.00 0.00 64 1018.0
20260502061313 14 178 11.3 16.1 0.00 0.00 0.00 67 1018.1
20260502060819 13 187 11.3 14.5 0.00 0.00 0.00 66 1018.1
20260502055815 13 164 9.7 11.3 0.00 0.00 0.00 67 1018.1
20260502055313 12 174 9.7 9.7 0.00 0.00 0.00 67 1018.1
20260502054814 12 179 6.4 8.0 0.00 0.00 0.00 69 1018.2
20260502054314 12 174 6.4 9.7 0.00 0.00 0.00 68 1018.2
20260502053815 12 163 6.4 9.7 0.00 0.00 0.00 69 1018.1
20260502052812 11 156 8.0 9.7 0.00 0.00 0.00 70 1018.1
20260502052313 11 157 8.0 9.7 0.00 0.00 0.00 71 1018.1
20260502051813 10 146 8.0 9.7 0.00 0.00 0.00 71 1018.1
20260502051312 10 146 8.0 9.7 0.00 0.00 0.00 72 1018.1
20260502050813 10 146 8.0 9.7 0.00 0.00 0.00 73 1018.2
20260502045814 8 140 9.7 9.7 0.00 0.00 0.00 76 1018.1
20260502045312 7 151 8.0 8.0 0.00 0.00 0.00 78 1018.2
20260502044813 7 147 6.4 8.0 0.00 0.00 0.00 79 1018.2
20260502044314 7 147 6.4 8.0 0.00 0.00 0.00 79 1018.2
20260502043814 7 147 4.8 8.0 0.00 0.00 0.00 79 1018.1
20260502043310 7 147 6.4 8.0 0.00 0.00 0.00 79 1018.3
20260502042811 6 147 6.4 8.0 0.00 0.00 0.00 79 1018.2
20260502042311 6 147 6.4 8.0 0.00 0.00 0.00 78 1018.2
20260502041312 6 147 4.8 9.7 0.00 0.00 0.00 79 1018.2
20260502040310 6 147 8.0 9.7 0.00 0.00 0.00 80 1018.3
20260502035810 6 147 6.4 9.7 0.00 0.00 0.00 81 1018.3
20260502035310 6 147 8.0 9.7 0.00 0.00 0.00 81 1018.3
20260502034810 6 147 8.0 8.0 0.00 0.00 0.00 81 1018.5
20260502034309 6 147 6.4 8.0 0.00 0.00 0.00 80 1018.4
20260502033813 6 147 6.4 8.0 0.00 0.00 0.00 80 1018.5
20260502033310 6 147 8.0 8.0 0.00 0.00 0.00 79 1018.5
20260502031809 7 150 6.4 8.0 0.00 0.00 0.00 77 1018.5
20260502031309 7 144 6.4 8.0 0.00 0.00 0.00 76 1018.5
20260502030807 7 146 8.0 8.0 0.00 0.00 0.00 76 1018.5
20260502030309 7 144 6.4 8.0 0.00 0.00 0.00 75 1018.6
20260502024810 8 140 8.0 9.7 0.00 0.00 0.00 73 1018.7
20260502023810 8 140 8.0 9.7 0.00 0.00 0.00 72 1018.7
20260502022307 9 140 9.7 11.3 0.00 0.00 0.00 70 1018.9
20260502021808 9 140 9.7 11.3 0.00 0.00 0.00 70 1018.9
20260502021307 9 140 8.0 9.7 0.00 0.00 0.00 70 1018.9
20260502020807 9 141 9.7 9.7 0.00 0.00 0.00 70 1019.0
20260502020308 10 140 9.7 11.3 0.00 0.00 0.00 70 1019.0
20260502015809 10 140 9.7 11.3 0.00 0.00 0.00 68 1019.0
20260502015253 10 140 9.7 9.7 0.00 0.00 0.00 68 1019.1
20260502014753 10 140 9.7 9.7 0.00 0.00 0.00 68 1019.2
20260502014252 10 140 9.7 9.7 0.00 0.00 0.00 69 1019.3
20260502013252 10 140 8.0 11.3 0.00 0.00 0.00 68 1019.3
20260502012753 10 144 8.0 11.3 0.00 0.00 0.00 68 1019.4
20260502012251 10 140 8.0 11.3 0.00 0.00 0.00 67 1019.3
20260502011752 10 140 8.0 9.7 0.00 0.00 0.00 67 1019.4
20260502011253 10 140 8.0 9.7 0.00 0.00 0.00 68 1019.5
20260502010751 10 140 8.0 9.7 0.00 0.00 0.00 68 1019.6
20260502010253 10 140 8.0 9.7 0.00 0.00 0.00 67 1019.6
20260502005751 11 140 8.0 9.7 0.00 0.00 0.00 68 1019.7
20260502005252 11 140 8.0 9.7 0.00 0.00 0.00 68 1019.7
20260502004752 10 140 6.4 9.7 0.00 0.00 0.00 69 1019.8
20260502004249 10 140 8.0 9.7 0.00 0.00 0.00 72 1019.9
20260502003751 9 140 8.0 9.7 0.00 0.00 0.00 73 1019.9
20260502003250 9 140 6.4 8.0 0.00 0.00 0.00 73 1020.0
20260502002248 10 140 6.4 8.0 0.00 0.00 0.00 70 1020.0
20260502000747 10 140 8.0 9.7 0.00 0.00 0.00 73 1020.2
20260501235741 9 140 6.4 8.0 0.00 0.00 0.00 74 1020.3
20260501235241 9 140 4.8 6.4 0.00 0.00 0.00 74 1020.3
20260501234244 10 140 4.8 6.4 0.00 0.00 0.00 74 1020.4
20260501231740 8 140 6.4 8.0 0.00 0.00 0.00 78 1020.4
20260501231239 8 140 6.4 6.4 0.00 0.00 0.00 77 1020.4
20260501230741 8 140 6.4 6.4 0.00 0.00 0.00 78 1020.4
20260501230240 8 140 3.2 4.8 0.00 0.00 0.00 79 1020.4
20260501225740 8 140 3.2 4.8 0.00 0.00 0.00 79 1020.5
20260501225238 8 140 3.2 6.4 0.00 0.00 0.00 79 1020.6
20260501224736 8 140 4.8 6.4 0.00 0.00 0.00 78 1020.5
20260501224237 8 140 4.8 6.4 0.00 0.00 0.00 78 1020.5
20260501223737 8 140 4.8 6.4 0.00 0.00 0.00 77 1020.6
20260501223239 9 140 6.4 8.0 0.00 0.00 0.00 77 1020.6
20260501222737 9 140 6.4 8.0 0.00 0.00 0.00 76 1020.6
20260501222237 9 140 6.4 8.0 0.00 0.00 0.00 76 1020.7
20260501221238 9 140 6.4 8.0 0.00 0.00 0.00 75 1020.7
20260501220737 9 140 6.4 8.0 0.00 0.00 0.00 76 1020.7
20260501220239 9 148 6.4 6.4 0.00 0.00 0.00 76 1020.9
20260501215737 9 148 6.4 6.4 0.00 0.00 0.00 76 1020.9
20260501215235 9 150 4.8 4.8 0.00 0.00 0.00 76 1021.0
20260501214737 10 150 3.2 4.8 0.00 0.00 0.00 75 1020.9
20260501214234 10 150 3.2 4.8 0.00 0.00 0.00 75 1021.0
20260501213735 10 150 3.2 6.4 0.00 0.00 0.00 74 1021.0
20260501213235 11 147 3.2 6.4 0.00 0.00 0.00 70 1021.0
20260501212734 12 147 3.2 8.0 0.00 0.00 0.00 68 1021.0
20260501211733 13 141 8.0 9.7 0.00 0.00 0.00 65 1021.0
20260501211232 12 140 8.0 9.7 0.00 0.00 0.00 67 1021.0
20260501210735 11 140 8.0 9.7 0.00 0.00 0.00 71 1021.0
20260501210235 11 141 8.0 9.7 0.00 0.00 0.00 71 1020.9
20260501205728 12 143 8.0 8.0 0.00 0.00 0.00 71 1020.9
20260501205232 12 143 8.0 8.0 0.00 0.00 0.00 70 1021.1
20260501204729 12 147 6.4 8.0 0.00 0.00 0.00 68 1021.0
20260501204230 13 151 6.4 8.0 0.00 0.00 0.00 67 1021.0
20260501203727 13 140 6.4 8.0 0.00 0.00 0.00 64 1021.1
20260501202727 15 140 6.4 6.4 0.00 0.00 0.00 59 1021.1
20260501202227 15 138 4.8 6.4 0.00 0.00 0.00 57 1021.2
20260501201728 16 130 4.8 9.7 0.00 0.00 0.00 55 1021.3
20260501201227 16 135 8.0 9.7 0.00 0.00 0.00 52 1021.2
20260501200240 17 127 8.0 9.7 0.00 0.00 0.00 50 1021.2